Weather History for KDLS - September, 2012

Change the Weather History Date:

Monday, September 24, 2012

  Actual Average Record
Temperature  
Mean Temperature 64 °F -  
Max Temperature 79 °F 78 °F 97 °F (1952)
Min Temperature 51 °F 49 °F 33 °F (1961)
Growing Degree Days 14 (Base 50)    
Moisture  
Dew Point 49 °F    
Average Humidity 58    
Maximum Humidity 80    
Minimum Humidity 37    
Precipitation  
Precipitation 0.00 in - - ()
Sea Level Pressure  
Sea Level Pressure 30.02 in    
Wind  
Wind Speed 6 mph (NW)    
Max Wind Speed 22 mph    
Max Gust Speed 30 mph    
Visibility 10 miles    
Events      
Averages and records for this station are not official NWS values.
T = Trace of Precipitation, MM = Missing Value Source: NWS Daily Summary

Daily Weather History Graph

Daily Weather History Graph

Search for Another Location

Airport or City:

Trip Planner

Search our weather history database for the weather conditions in past years. The results will help you decide how hot, cold, wet, or windy it might be!

Date:

Astronomy

Sep. 24, 2012 Rise Set
Actual Time 6:54 AM PDT 6:57 PM PDT
Civil Twilight 6:25 AM PDT 7:26 PM PDT
Nautical Twilight 5:50 AM PDT 8:01 PM PDT
Astronomical Twilight 5:15 AM PDT 8:36 PM PDT
Moon 3:59 PM PDT (9/24) 1:02 AM PDT (9/24)
Length of Visible Light 13h 01m
Length of Day
12h 02m
Waxing Gibbous, 71% of the Moon is Illuminated
Sep 24
Waxing Gibbous
Sep 29
Full
Oct 8
Last Quarter
Oct 15
New
Oct 21
First Quarter

Hourly Weather History & Observations

Time (PDT) Temp. Dew Point Humidity Pressure Visibility Wind Dir Wind Speed Gust Speed Precip Events Conditions
12:53 AM 59.0 °F 46.9 °F 64% 30.05 in 10.0 mi Calm Calm - N/A   Clear
1:53 AM 57.9 °F 46.0 °F 65% 30.05 in 10.0 mi Calm Calm - N/A   Clear
2:53 AM 54.0 °F 44.1 °F 69% 30.05 in 10.0 mi ESE 6.9 mph - N/A   Clear
3:53 AM 55.0 °F 46.9 °F 74% 30.06 in 10.0 mi SE 3.5 mph - N/A   Clear
4:53 AM 53.1 °F 45.0 °F 74% 30.06 in 10.0 mi ESE 4.6 mph - N/A   Clear
5:53 AM 51.1 °F 45.0 °F 80% 30.07 in 10.0 mi Calm Calm - N/A   Clear
6:53 AM 53.1 °F 46.0 °F 77% 30.08 in 10.0 mi Calm Calm - N/A   Clear
7:53 AM 53.1 °F 46.9 °F 80% 30.09 in 10.0 mi Calm Calm - N/A   Clear
8:53 AM 57.9 °F 48.9 °F 72% 30.10 in 10.0 mi Calm Calm - N/A   Clear
9:53 AM 62.1 °F 48.9 °F 62% 30.09 in 10.0 mi WNW 4.6 mph - N/A   Clear
10:53 AM 66.0 °F 50.0 °F 56% 30.07 in 10.0 mi NNW 10.4 mph - N/A   Clear
11:53 AM 69.1 °F 50.0 °F 51% 30.05 in 10.0 mi NW 5.8 mph - N/A   Clear
12:53 PM 73.9 °F 50.0 °F 43% 30.01 in 10.0 mi NW 5.8 mph - N/A   Clear
1:53 PM 75.9 °F 50.0 °F 40% 29.99 in 10.0 mi NNW 10.4 mph - N/A   Clear
2:53 PM 78.1 °F 50.0 °F 37% 29.96 in 10.0 mi NW 17.3 mph 24.2 mph N/A   Clear
3:53 PM 78.1 °F 50.0 °F 37% 29.95 in 10.0 mi NW 21.9 mph 29.9 mph N/A   Clear
4:53 PM 75.9 °F 52.0 °F 43% 29.94 in 10.0 mi NW 18.4 mph 24.2 mph N/A   Clear
5:53 PM 72.0 °F 52.0 °F 49% 29.94 in 10.0 mi NNW 13.8 mph 24.2 mph N/A   Clear
6:53 PM 71.1 °F 52.0 °F 51% 29.94 in 10.0 mi NW 12.7 mph 23.0 mph N/A   Clear
7:53 PM 69.1 °F 52.0 °F 54% 29.95 in 10.0 mi NNW 15.0 mph - N/A   Clear
8:53 PM 69.1 °F 51.1 °F 53% 29.96 in 10.0 mi NW 13.8 mph 19.6 mph N/A   Clear
9:53 PM 68.0 °F 50.0 °F 52% 29.98 in 10.0 mi WNW 9.2 mph - N/A   Clear
10:53 PM 68.0 °F 48.9 °F 50% 29.98 in 10.0 mi NW 6.9 mph - N/A   Clear
11:53 PM 66.9 °F 51.1 °F 57% 29.98 in 10.0 mi NW 15.0 mph - N/A   Clear